GW4171 Weather Reports


Display with metric or nautical units.
time (UTC)temp
F
wind
direction
speed
MPH
gust
MPH
rain 1hr
in
rain 24hr
in
rain mn
in
humidity
%
barometer
mb
20260506131926 68 248 13.0 13.0 0.00 0.00 0.00 66 1009.0
20260506131422 68 247 4.0 13.0 0.00 0.00 0.00 67 1009.1
20260506130919 68 241 8.0 14.0 0.00 0.00 0.00 67 1008.7
20260506130415 68 237 9.0 12.0 0.00 0.00 0.00 67 1008.8
20260506125914 68 245 3.0 12.0 0.00 0.00 0.00 67 1008.9
20260506125412 68 212 4.0 17.0 0.00 0.00 0.00 67 1008.8
20260506124910 68 227 8.0 11.0 0.00 0.00 0.00 68 1008.8
20260506124407 67 202 6.0 21.0 0.00 0.00 0.00 69 1009.0
20260506123904 67 274 4.0 9.0 0.00 0.00 0.00 69 1008.9
20260506123402 67 258 8.0 13.0 0.00 0.00 0.00 70 1008.9
20260506122859 67 156 3.0 11.0 0.00 0.00 0.00 70 1008.8
20260506122356 66 193 2.0 10.0 0.00 0.00 0.00 70 1009.1
20260506121854 66 110 5.0 17.0 0.00 0.00 0.00 71 1008.9
20260506121351 66 241 4.0 7.0 0.00 0.00 0.00 71 1009.3
20260506120848 66 179 3.0 23.0 0.00 0.00 0.00 71 1009.3
20260506120345 66 221 10.0 15.0 0.00 0.00 0.00 71 1009.1
20260506115843 66 205 4.0 15.0 0.00 0.00 0.00 71 1009.3
20260506115341 66 141 5.0 14.0 0.00 0.00 0.00 71 1009.3
20260506114839 65 232 5.0 11.0 0.00 0.00 0.00 73 1009.3
20260506114336 65 192 6.0 12.0 0.00 0.00 0.00 73 1009.3
20260506113835 65 221 4.0 18.0 0.00 0.00 0.00 73 1009.4
20260506113332 65 189 3.0 12.0 0.00 0.00 0.00 73 1009.1
20260506112828 65 240 7.0 11.0 0.00 0.00 0.00 74 1009.3
20260506112326 65 243 11.0 12.0 0.00 0.00 0.00 74 1009.4
20260506111823 65 235 3.0 6.0 0.00 0.00 0.00 74 1009.3
20260506111321 65 250 4.0 9.0 0.00 0.00 0.00 75 1009.3
20260506110818 64 246 4.0 8.0 0.00 0.00 0.00 76 1009.3
20260506110315 63 261 5.0 9.0 0.00 0.00 0.00 78 1009.3
20260506105812 62 58 1.0 5.0 0.00 0.00 0.00 79 1009.1
20260506105309 62 167 3.0 5.0 0.00 0.00 0.00 79 1009.3
20260506104806 63 275 2.0 5.0 0.00 0.00 0.00 78 1009.2
20260506104304 63 225 2.0 4.0 0.00 0.00 0.00 78 1009.2
20260506103801 62 217 0.0 4.0 0.00 0.00 0.00 79 1009.1
20260506103259 61 172 2.0 4.0 0.00 0.00 0.00 80 1009.3
20260506102756 61 131 2.0 4.0 0.00 0.00 0.00 81 1009.5
20260506102254 61 225 3.0 3.0 0.00 0.00 0.00 81 1009.0
20260506101751 61 193 2.0 5.0 0.00 0.00 0.00 81 1008.9
20260506101247 61 248 2.0 3.0 0.00 0.00 0.00 81 1009.1
20260506100745 61 192 2.0 6.0 0.00 0.00 0.00 82 1008.9
20260506100243 60 197 2.0 4.0 0.00 0.00 0.00 82 1009.0
20260506095741 60 252 3.0 5.0 0.00 0.00 0.00 82 1009.1
20260506095238 60 294 1.0 4.0 0.00 0.00 0.00 82 1009.2
20260506094734 60 32 3.0 6.0 0.00 0.00 0.00 82 1009.1
20260506094232 60 162 3.0 3.0 0.00 0.00 0.00 83 1009.1
20260506093731 60 156 4.0 6.0 0.00 0.00 0.00 82 1009.0
20260506093228 60 139 3.0 5.0 0.00 0.00 0.00 83 1008.9
20260506092725 60 178 3.0 4.0 0.00 0.00 0.00 82 1009.1
20260506092223 60 275 2.0 5.0 0.00 0.00 0.00 82 1009.3
20260506091720 60 201 3.0 5.0 0.00 0.00 0.00 82 1009.1
20260506091217 60 97 0.0 7.0 0.00 0.00 0.00 82 1009.1
20260506090715 60 247 1.0 5.0 0.00 0.00 0.00 81 1009.1
20260506090212 60 236 1.0 4.0 0.00 0.00 0.00 81 1009.3
20260506085709 60 260 2.0 5.0 0.00 0.00 0.00 81 1009.5
20260506085205 60 241 1.0 4.0 0.00 0.00 0.00 81 1009.4
20260506084702 60 106 2.0 4.0 0.00 0.00 0.00 80 1009.4
20260506084158 60 136 0.0 5.0 0.00 0.00 0.00 80 1009.2
20260506083655 61 213 2.0 3.0 0.00 0.00 0.00 80 1009.4
20260506083153 61 228 0.0 4.0 0.00 0.00 0.00 80 1009.2
20260506082650 61 296 2.0 4.0 0.00 0.00 0.00 79 1009.2
20260506082145 61 231 3.0 4.0 0.00 0.00 0.00 79 1009.3
20260506081643 61 268 0.0 4.0 0.00 0.00 0.00 79 1009.4
20260506081141 61 223 3.0 4.0 0.00 0.00 0.00 79 1009.4
20260506080638 61 184 3.0 4.0 0.00 0.00 0.00 79 1009.5
20260506080135 61 219 3.0 4.0 0.00 0.00 0.00 79 1009.4
20260506073119 62 97 2.0 3.0 0.00 0.00 0.00 77 1009.5
20260506072615 61 241 1.0 3.0 0.00 0.00 0.00 77 1009.5
20260506072113 61 194 2.0 2.0 0.00 0.00 0.00 77 1009.6
20260506071611 61 191 0.0 4.0 0.00 0.00 0.00 77 1009.6
20260506071108 61 239 2.0 4.0 0.00 0.00 0.00 77 1009.6
20260506070605 61 345 2.0 4.0 0.00 0.00 0.00 77 1009.6
20260506062039 60 154 2.0 5.0 0.00 0.00 0.00 75 1009.5
20260506061535 61 148 3.0 5.0 0.00 0.00 0.00 75 1009.6
20260506061033 61 125 2.0 6.0 0.00 0.00 0.00 74 1009.5
20260506060531 62 203 1.0 5.0 0.00 0.00 0.00 73 1009.5
20260506051000 68 240 5.0 7.0 0.00 0.00 0.00 65 1009.9
20260506050458 68 227 4.0 12.0 0.00 0.00 0.00 64 1010.1
20260506044948 68 228 9.0 13.0 0.00 0.00 0.00 64 1010.1
20260506044447 69 227 5.0 16.0 0.00 0.00 0.00 63 1010.1
20260506043943 69 238 4.0 11.0 0.00 0.00 0.00 63 1010.2
20260506043440 69 240 6.0 12.0 0.00 0.00 0.00 63 1010.3
20260506042938 69 235 6.0 7.0 0.00 0.00 0.00 63 1010.4
20260506042437 69 237 11.0 11.0 0.00 0.00 0.00 62 1010.0
20260506041935 69 246 4.0 15.0 0.00 0.00 0.00 62 1010.1
20260506041432 69 231 2.0 11.0 0.00 0.00 0.00 62 1010.1
20260506040929 69 153 2.0 9.0 0.00 0.00 0.00 62 1010.0
20260506040427 69 250 4.0 11.0 0.00 0.00 0.00 61 1010.1
20260506035923 69 199 3.0 10.0 0.00 0.00 0.00 61 1010.0
20260506035420 69 239 11.0 15.0 0.00 0.00 0.00 60 1010.2
20260506034917 69 238 12.0 14.0 0.00 0.00 0.00 60 1010.0
20260506034414 69 228 9.0 12.0 0.00 0.00 0.00 60 1010.0
20260506033911 69 183 4.0 10.0 0.00 0.00 0.00 60 1010.0
20260506033408 69 211 3.0 7.0 0.00 0.00 0.00 59 1010.1
20260506032905 69 243 6.0 13.0 0.00 0.00 0.00 59 1009.9
20260506032402 69 236 8.0 16.0 0.00 0.00 0.00 59 1010.0
20260506031859 69 224 7.0 14.0 0.00 0.00 0.00 58 1009.7
20260506031356 69 227 10.0 16.0 0.00 0.00 0.00 58 1009.8
20260506030854 69 232 4.0 12.0 0.00 0.00 0.00 58 1009.9
20260506030352 69 254 5.0 25.0 0.00 0.00 0.00 58 1009.7
20260506025848 69 236 8.0 14.0 0.00 0.00 0.00 58 1009.9
20260506025344 69 207 5.0 9.0 0.00 0.00 0.00 58 1009.8
20260506024841 69 239 10.0 12.0 0.00 0.00 0.00 58 1010.0
20260506024339 70 238 4.0 21.0 0.00 0.00 0.00 57 1010.1
20260506023835 69 236 6.0 18.0 0.00 0.00 0.00 57 1010.1
20260506023331 70 218 6.0 27.0 0.00 0.00 0.00 57 1010.1
20260506022828 70 327 2.0 15.0 0.00 0.00 0.00 57 1010.0
20260506022326 70 240 5.0 9.0 0.00 0.00 0.00 57 1009.8
20260506021824 70 217 1.0 12.0 0.00 0.00 0.00 57 1009.8
20260506021321 70 222 11.0 15.0 0.00 0.00 0.00 57 1010.1
20260506020817 70 204 3.0 11.0 0.00 0.00 0.00 57 1010.0
20260506020315 70 235 8.0 9.0 0.00 0.00 0.00 57 1009.8
20260506015813 70 139 2.0 17.0 0.00 0.00 0.00 57 1010.0
20260506015310 69 252 2.0 7.0 0.00 0.00 0.00 57 1009.9
20260506014807 69 252 8.0 13.0 0.00 0.00 0.00 57 1010.0
20260506014304 69 231 4.0 9.0 0.00 0.00 0.00 57 1009.7
20260506013800 70 195 5.0 12.0 0.00 0.00 0.00 56 1009.8
20260506013257 70 320 0.0 5.0 0.00 0.00 0.00 56 1009.7
20260506012754 70 267 5.0 6.0 0.00 0.00 0.00 57 1009.6
20260506012251 69 191 3.0 11.0 0.00 0.00 0.00 57 1009.7
20260506011748 69 246 4.0 12.0 0.00 0.00 0.00 57 1009.7
20260506011244 69 231 8.0 11.0 0.00 0.00 0.00 57 1009.6
20260506010743 69 215 5.0 12.0 0.00 0.00 0.00 57 1009.7
20260506010239 69 235 5.0 8.0 0.00 0.00 0.00 57 1009.3
20260506005737 69 240 1.0 4.0 0.00 0.00 0.00 57 1009.2
20260506005234 69 144 2.0 5.0 0.00 0.00 0.00 57 1009.2
20260506004729 69 252 4.0 7.0 0.00 0.00 0.00 57 1009.4
20260506004227 69 58 2.0 4.0 0.00 0.00 0.00 57 1009.2
20260506003723 69 238 3.0 6.0 0.00 0.00 0.00 57 1009.3
20260506003220 69 161 4.0 6.0 0.00 0.00 0.00 57 1009.3
20260506002716 70 188 4.0 5.0 0.00 0.00 0.00 56 1009.0
20260506002212 70 171 3.0 7.0 0.00 0.00 0.00 56 1008.9
20260506001708 70 197 4.0 7.0 0.00 0.00 0.00 56 1009.1
20260506001206 70 258 2.0 9.0 0.00 0.00 0.00 56 1008.9
20260506000702 69 151 3.0 7.0 0.00 0.00 0.00 57 1008.7
20260506000200 69 99 3.0 7.0 0.00 0.00 0.00 57 1008.6
20260505235657 70 185 2.0 5.0 0.00 0.00 0.00 56 1008.7
20260505235154 71 195 3.0 5.0 0.00 0.00 0.00 55 1008.7
20260505234645 71 264 1.0 7.0 0.00 0.00 0.00 55 1008.7
20260505234142 71 115 5.0 7.0 0.00 0.00 0.00 55 1008.5
20260505233639 71 175 5.0 5.0 0.00 0.00 0.00 54 1008.3
20260505233137 72 150 4.0 7.0 0.00 0.00 0.00 54 1008.3
20260505232634 72 160 3.0 8.0 0.00 0.00 0.00 54 1008.3
20260505232132 72 207 1.0 6.0 0.00 0.00 0.00 54 1007.8
20260505231628 72 190 4.0 7.0 0.00 0.00 0.00 54 1008.0
20260505231127 73 199 4.0 4.0 0.00 0.00 0.00 53 1008.0
20260505230625 73 216 0.0 5.0 0.00 0.00 0.00 53 1008.0
20260505230120 73 147 5.0 5.0 0.00 0.00 0.00 52 1007.6
20260505225617 74 224 3.0 11.0 0.00 0.00 0.00 50 1007.7
20260505225113 74 253 2.0 6.0 0.00 0.00 0.00 49 1007.7
20260505224610 75 96 1.0 5.0 0.00 0.00 0.00 49 1007.6
20260505224108 75 242 4.0 5.0 0.00 0.00 0.00 48 1008.0
20260505223605 76 145 2.0 7.0 0.00 0.00 0.00 47 1007.6
20260505223101 76 162 5.0 9.0 0.00 0.00 0.00 47 1007.6
20260505222558 76 160 2.0 10.0 0.00 0.00 0.00 46 1007.7
20260505222054 77 325 2.0 4.0 0.00 0.00 0.00 44 1007.7
20260505221551 78 205 3.0 5.0 0.00 0.00 0.00 43 1007.7
20260505221047 80 159 6.0 9.0 0.00 0.00 0.00 40 1007.6
20260505220545 79 258 1.0 7.0 0.00 0.00 0.00 41 1007.4
20260505220043 79 207 2.0 4.0 0.00 0.00 0.00 42 1007.1
20260505215541 80 262 2.0 6.0 0.00 0.00 0.00 41 1007.3
20260505215038 82 162 2.0 6.0 0.00 0.00 0.00 38 1007.2
20260505214536 82 137 5.0 5.0 0.00 0.00 0.00 37 1007.3
20260505214033 81 107 3.0 5.0 0.00 0.00 0.00 38 1007.2
20260505213531 81 251 2.0 7.0 0.00 0.00 0.00 38 1007.2
20260505213026 80 104 1.0 5.0 0.00 0.00 0.00 40 1007.1
20260505212522 80 123 0.0 4.0 0.00 0.00 0.00 42 1007.3
20260505212020 78 143 5.0 7.0 0.00 0.00 0.00 44 1007.3
20260505211517 78 154 3.0 6.0 0.00 0.00 0.00 43 1007.3
20260505211014 79 119 2.0 5.0 0.00 0.00 0.00 41 1007.2
20260505210510 79 103 7.0 9.0 0.00 0.00 0.00 42 1007.0
20260505210007 80 131 3.0 6.0 0.00 0.00 0.00 41 1007.0
20260505205506 79 156 4.0 10.0 0.00 0.00 0.00 42 1007.0
20260505205002 80 146 5.0 11.0 0.00 0.00 0.00 40 1007.1
20260505204500 84 186 4.0 5.0 0.00 0.00 0.00 32 1007.2
20260505203957 83 270 2.0 9.0 0.00 0.00 0.00 36 1007.2
20260505203453 80 146 2.0 11.0 0.00 0.00 0.00 41 1006.8
20260505202950 82 200 2.0 4.0 0.00 0.00 0.00 40 1007.1
20260505202447 81 82 0.0 3.0 0.00 0.00 0.00 41 1007.3
20260505201942 80 165 5.0 8.0 0.00 0.00 0.00 42 1007.2
20260505201439 80 193 3.0 4.0 0.00 0.00 0.00 41 1007.2
20260505200937 80 207 3.0 6.0 0.00 0.00 0.00 42 1007.4
20260505200435 80 162 6.0 8.0 0.00 0.00 0.00 41 1007.3
20260505195931 80 169 4.0 5.0 0.00 0.00 0.00 42 1007.3
20260505195428 81 75 2.0 4.0 0.00 0.00 0.00 41 1007.2
20260505194925 80 143 4.0 6.0 0.00 0.00 0.00 43 1007.6
20260505194423 79 163 2.0 5.0 0.00 0.00 0.00 44 1007.8
20260505193922 79 204 4.0 12.0 0.00 0.00 0.00 44 1007.5
20260505193420 79 107 11.0 14.0 0.00 0.00 0.00 44 1007.8
20260505192918 79 284 2.0 11.0 0.00 0.00 0.00 44 1008.0
20260505192416 80 230 1.0 3.0 0.00 0.00 0.00 44 1007.9
20260505191913 79 170 5.0 8.0 0.00 0.00 0.00 44 1007.9
20260505191412 79 193 4.0 7.0 0.00 0.00 0.00 45 1008.0
20260505190908 77 172 2.0 16.0 0.00 0.00 0.00 47 1008.2
20260505190403 77 128 4.0 12.0 0.00 0.00 0.00 47 1008.6
20260505185859 78 191 1.0 6.0 0.00 0.00 0.00 46 1008.5
20260505185356 77 146 4.0 9.0 0.00 0.00 0.00 47 1008.6
20260505184853 78 236 4.0 9.0 0.00 0.00 0.00 45 1008.9
20260505184350 77 108 3.0 12.0 0.00 0.00 0.00 47 1008.6
20260505183847 78 232 5.0 6.0 0.00 0.00 0.00 47 1008.7
20260505183343 77 170 3.0 7.0 0.00 0.00 0.00 47 1008.7
20260505182840 77 89 2.0 9.0 0.00 0.00 0.00 48 1008.8
20260505182337 77 220 4.0 10.0 0.00 0.00 0.00 48 1008.9
20260505181834 78 153 6.0 10.0 0.00 0.00 0.00 47 1009.1
20260505181331 77 130 4.0 7.0 0.00 0.00 0.00 48 1009.1
20260505180827 77 163 3.0 6.0 0.00 0.00 0.00 47 1008.9
20260505180324 76 345 2.0 8.0 0.00 0.00 0.00 50 1008.9
20260505175820 76 102 6.0 10.0 0.00 0.00 0.00 51 1008.9
20260505175317 75 131 8.0 13.0 0.00 0.00 0.00 51 1009.2
20260505174814 77 211 3.0 8.0 0.00 0.00 0.00 49 1009.4
20260505174311 77 191 2.0 7.0 0.00 0.00 0.00 49 1009.0
20260505173807 77 131 5.0 8.0 0.00 0.00 0.00 49 1009.3
20260505173303 77 85 4.0 8.0 0.00 0.00 0.00 49 1009.2
20260505172801 78 235 5.0 8.0 0.00 0.00 0.00 48 1009.3
20260505172258 77 152 2.0 10.0 0.00 0.00 0.00 48 1009.3
20260505171753 78 252 1.0 10.0 0.00 0.00 0.00 47 1009.4
20260505171250 77 242 3.0 6.0 0.00 0.00 0.00 48 1009.1
20260505170746 78 141 4.0 7.0 0.00 0.00 0.00 47 1009.3
20260505170244 78 193 3.0 12.0 0.00 0.00 0.00 47 1009.1
20260505165743 79 177 2.0 6.0 0.00 0.00 0.00 44 1009.3
20260505165240 79 209 6.0 11.0 0.00 0.00 0.00 42 1009.3
20260505164735 79 100 1.0 6.0 0.00 0.00 0.00 42 1009.2
20260505164233 79 152 1.0 6.0 0.00 0.00 0.00 42 1009.5
20260505163731 78 215 2.0 13.0 0.00 0.00 0.00 43 1009.5
20260505163229 78 102 2.0 8.0 0.00 0.00 0.00 44 1009.4
20260505162726 77 169 8.0 11.0 0.00 0.00 0.00 46 1009.6
20260505162223 77 225 3.0 7.0 0.00 0.00 0.00 45 1009.7
20260505161720 77 207 4.0 11.0 0.00 0.00 0.00 45 1009.8
20260505161218 77 151 2.0 6.0 0.00 0.00 0.00 47 1009.7
20260505160715 77 85 2.0 7.0 0.00 0.00 0.00 48 1009.9
20260505160212 77 96 3.0 4.0 0.00 0.00 0.00 48 1010.0
20260505153152 75 244 4.0 10.0 0.00 0.00 0.00 47 1010.0
20260505152648 74 248 0.0 6.0 0.00 0.00 0.00 47 1010.2
20260505152144 74 284 5.0 8.0 0.00 0.00 0.00 48 1010.2
20260505151639 74 232 6.0 9.0 0.00 0.00 0.00 48 1010.3
20260505151137 73 239 2.0 11.0 0.00 0.00 0.00 49 1010.4
20260505150633 74 226 2.0 5.0 0.00 0.00 0.00 49 1010.4
20260505150130 73 242 0.0 8.0 0.00 0.00 0.00 50 1010.6
20260505140559 70 267 5.0 9.0 0.00 0.00 0.00 55 1010.6